Date,TemperatureHighF,TemperatureAvgF,TemperatureLowF,DewpointHighF,DewpointAvgF,DewpointLowF,HumidityHigh,HumidityAvg,HumidityLow,PressureMaxIn,PressureMinIn,WindSpeedMaxMPH,WindSpeedAvgMPH,GustSpeedMaxMPH,PrecipitationSumIn
2013-1-1,22.9,8.2,-11.7,16.0,2.2,-16.0,85,76,70,30.27,30.06,17,3,0,0.00
2013-1-2,18.6,16.6,14.0,13.0,11.3,8.0,86,79,71,30.27,30.05,11,3,0,0.00
2013-1-3,27.0,21.3,14.7,24.0,17.2,11.0,90,84,74,30.20,29.94,13,4,0,0.00
2013-1-4,33.1,29.3,23.6,28.0,22.3,19.0,88,75,65,30.11,29.84,17,8,0,0.00
2013-1-5,33.4,25.6,18.0,24.0,19.3,13.0,86,77,66,30.32,29.98,15,4,0,0.00
2013-1-6,27.5,23.2,11.7,26.0,17.6,6.0,92,80,63,30.37,29.92,11,3,0,0.00
2013-1-7,39.1,29.0,16.2,31.0,22.4,9.0,87,76,67,30.38,29.94,24,10,0,0.01
2013-1-8,41.3,33.5,23.4,33.0,28.2,20.0,91,81,62,30.22,29.98,12,4,0,0.01
2013-1-9,38.5,35.9,33.3,33.0,29.9,27.0,96,79,70,30.45,29.85,19,8,0,0.00
2013-1-10,38.2,32.9,22.3,34.0,27.5,20.0,91,80,68,30.64,30.29,17,4,0,0.00
2013-1-11,38.2,37.4,36.2,38.0,35.9,33.0,97,94,87,30.27,29.77,19,6,0,0.09
2013-1-12,47.8,40.3,32.1,46.0,37.4,29.0,97,89,71,30.01,29.70,24,7,0,0.09
2013-1-13,33.9,31.6,28.3,30.0,28.5,25.0,93,87,83,30.02,29.93,8,2,0,0.02
2013-1-14,28.3,21.0,8.9,26.0,16.7,6.0,91,83,67,30.44,29.99,12,4,0,0.02
2013-1-15,26.8,20.3,9.1,23.0,15.0,5.0,90,80,62,30.46,30.14,18,6,0,0.00
2013-1-16,29.8,25.9,14.0,28.0,21.9,7.0,93,85,72,30.12,29.64,24,10,0,0.00
2013-1-17,13.7,4.9,-8.5,11.0,-0.7,-13.0,92,78,66,30.41,30.09,14,4,0,0.00
2013-1-18,22.0,10.3,-7.8,20.0,7.5,-12.0,93,88,81,30.43,29.86,7,2,0,0.00
2013-1-19,26.5,21.4,16.6,25.0,19.5,14.0,94,92,90,29.95,29.46,13,3,0,0.00
2013-1-20,25.8,6.8,-4.9,24.0,2.4,-9.0,93,82,73,30.24,29.46,13,5,0,0.00
2013-1-21,9.8,1.5,-8.8,3.0,-4.0,-13.0,83,78,67,30.23,30.00,7,2,0,0.00
2013-1-22,-1.0,-9.4,-19.6,-8.0,-17.5,-25.0,78,68,52,30.39,30.16,4,1,0,0.00
2013-1-23,7.6,-2.3,-20.8,3.0,-7.3,-26.0,85,79,74,30.44,30.20,6,1,0,0.00
2013-1-24,7.2,-7.1,-26.8,-1.0,-13.5,-32.0,92,74,59,30.80,30.45,9,1,0,0.00
2013-1-25,18.8,10.3,-5.5,17.0,6.5,-10.0,92,84,81,30.63,30.15,10,3,0,0.00
2013-1-26,23.6,9.6,-5.3,14.0,4.7,-9.0,88,81,64,30.56,30.20,4,1,0,0.06
2013-1-27,29.3,21.4,8.9,27.0,18.0,6.0,91,86,80,30.55,30.25,12,3,0,0.06
2013-1-28,33.6,31.4,28.4,32.0,30.0,26.0,96,95,90,30.25,29.95,9,2,0,0.01
2013-1-29,35.6,32.3,28.3,35.0,31.0,27.0,96,94,91,30.11,29.58,14,4,0,0.01
2013-1-30,35.6,35.2,34.6,35.0,34.7,34.0,97,97,96,29.57,29.47,4,2,0,0.01
2013-1-31,5.4,5.0,4.4,2.0,1.4,1.0,84,84,84,29.98,29.95,2,1,0,0.00
2013-2-1,11.4,2.5,-9.3,8.0,-1.3,-14.0,88,84,80,30.24,29.98,9,1,0,0.00
2013-2-2,13.4,2.4,-9.0,9.0,-2.4,-13.0,92,80,63,30.20,30.14,11,1,0,0.00
2013-2-3,17.9,7.8,-4.4,14.0,3.7,-8.0,88,83,70,30.14,29.87,16,2,0,0.00
2013-2-4,14.2,-2.1,-22.7,5.0,-7.6,-28.0,92,78,62,30.16,30.04,4,0,0,0.00
2013-2-5,20.3,6.6,-14.0,17.0,2.9,-19.0,90,84,78,30.07,29.82,10,1,0,0.00
2013-2-6,12.0,2.5,-19.6,9.0,-2.6,-24.0,86,79,69,30.44,30.09,7,2,0,0.00
2013-2-7,18.5,15.1,12.2,15.0,11.3,8.0,92,84,81,30.45,30.33,12,4,0,0.00
2013-2-8,22.8,12.2,-9.1,11.0,4.6,-13.0,84,72,52,30.57,30.33,10,4,0,0.00
2013-2-9,21.4,2.1,-21.8,16.0,-2.7,-27.0,89,80,67,30.63,30.35,12,2,0,0.00
2013-2-10,34.3,26.4,13.7,30.0,22.9,11.0,95,86,76,30.36,29.72,19,7,0,0.00
2013-2-11,37.4,34.0,27.9,37.0,32.9,25.0,97,95,88,29.75,29.43,17,9,0,0.09
2013-2-12,29.2,24.7,9.6,25.0,21.2,7.0,91,86,81,30.00,29.76,14,4,0,0.09
2013-2-13,35.7,25.2,13.0,28.0,21.8,11.0,100,87,69,29.93,29.75,6,1,0,0.02
2013-2-14,36.5,31.8,25.1,35.0,30.2,22.0,95,93,88,29.87,29.72,14,4,0,0.09
2013-2-15,24.0,14.8,2.2,21.0,8.9,-1.0,90,77,65,30.24,29.88,15,4,0,0.09
2013-2-16,16.0,4.0,-9.3,5.0,-2.4,-14.0,87,76,58,30.30,30.21,7,2,0,0.00
2013-2-17,18.1,-0.7,-18.5,4.0,-7.2,-24.0,92,74,55,30.38,30.26,5,1,0,0.00
2013-2-18,32.4,22.4,9.0,31.0,17.4,3.0,94,81,72,30.26,29.65,26,9,0,0.00
2013-2-19,34.2,26.6,9.4,34.0,25.2,6.0,97,94,84,29.89,29.24,19,8,0,0.13
2013-2-20,13.4,8.1,3.6,7.0,2.3,-3.0,84,77,73,30.46,29.90,15,7,0,0.13
2013-2-21,19.5,7.8,-2.4,15.0,2.6,-7.0,87,79,74,30.61,30.46,8,2,0,0.00
2013-2-22,29.1,18.8,0.6,27.0,15.4,-3.0,92,86,81,30.54,29.96,14,6,0,0.00
2013-2-23,33.9,29.1,18.8,32.0,27.2,17.0,95,92,87,29.95,29.87,8,1,0,0.17
2013-2-24,34.7,25.2,9.2,29.0,21.6,6.0,95,86,73,30.23,29.94,13,2,0,0.17
2013-2-25,32.2,27.6,18.8,29.0,24.8,16.0,93,89,80,30.31,30.23,5,1,0,0.06
2013-2-26,33.5,31.3,29.2,28.0,26.4,24.0,90,82,73,30.31,30.00,11,5,0,0.01
2013-2-27,37.2,33.7,29.7,31.0,28.2,25.0,88,80,76,30.00,29.83,20,10,0,0.01
2013-2-28,35.1,28.9,18.9,30.0,20.8,11.0,80,72,61,30.24,29.85,23,10,0,0.01
2013-3-1,30.7,20.4,13.5,17.0,10.9,7.0,79,67,54,30.36,30.25,17,6,0,0.00
2013-3-2,27.2,16.9,7.8,17.0,8.9,2.0,79,71,59,30.37,30.22,12,4,0,0.00
2013-3-3,22.8,9.0,-6.5,14.0,2.9,-11.0,86,77,62,30.26,30.17,10,2,0,0.00
2013-3-4,27.1,8.2,-12.2,14.0,0.5,-17.0,84,72,50,30.32,30.23,11,2,0,0.00
2013-3-5,34.2,17.7,-5.4,26.0,10.3,-10.0,86,74,56,30.35,30.19,15,3,0,0.00
2013-3-6,40.3,32.6,28.7,31.0,26.7,23.0,93,79,65,30.34,30.25,10,3,0,0.00
2013-3-7,34.3,27.9,19.4,28.0,24.2,17.0,92,86,78,30.54,30.34,11,3,0,0.03
2013-3-8,40.3,25.6,8.8,32.0,21.3,6.0,93,84,70,30.64,30.50,10,1,0,0.03
2013-3-9,38.2,30.4,17.3,32.0,27.1,15.0,95,88,72,30.48,30.12,22,7,0,0.00
2013-3-10,37.5,35.1,33.2,37.0,34.4,32.0,97,97,95,30.12,29.90,12,4,0,0.45
2013-3-11,39.7,37.3,33.9,38.0,35.9,32.0,97,94,90,30.02,29.49,13,6,0,0.06
2013-3-12,33.3,26.5,19.3,31.0,23.9,17.0,94,90,81,29.94,29.50,7,2,0,0.07
2013-3-13,25.7,19.3,12.9,16.0,11.7,8.0,92,74,56,30.25,29.93,21,6,0,0.07
2013-3-14,32.4,19.3,-1.8,24.0,7.1,-6.0,84,61,35,30.36,30.04,10,2,0,0.01
2013-3-15,31.7,26.1,18.5,30.0,18.2,7.0,93,73,56,30.10,29.86,17,7,0,0.01
2013-3-16,20.8,14.4,7.6,15.0,3.0,-4.0,88,61,47,30.18,30.08,12,4,0,0.00
2013-3-17,21.2,10.2,-12.5,16.0,1.4,-17.0,92,69,45,30.47,30.11,12,2,0,0.01
2013-3-18,33.5,22.3,3.6,26.0,13.3,-2.0,93,70,49,30.41,29.66,19,9,0,0.01
2013-3-19,31.1,28.5,23.5,30.0,26.3,21.0,94,91,85,29.82,29.51,18,8,0,0.02
2013-3-20,30.4,22.8,8.9,29.0,20.2,6.0,94,90,83,29.89,29.81,15,4,0,0.01
2013-3-21,29.5,24.3,18.0,24.0,18.2,15.0,92,78,65,29.99,29.88,16,5,0,0.01
2013-3-22,34.4,26.2,16.5,25.0,17.6,-99.9,86,75,63,30.13,29.97,13,-18,0,0.01
2013-3-23,38.3,25.9,7.9,26.0,19.8,5.0,91,79,58,30.22,30.13,13,3,0,0.00
2013-3-24,40.4,31.3,15.8,26.0,20.2,12.0,91,66,40,30.22,29.99,9,2,0,0.00
2013-3-25,40.9,35.4,30.1,29.0,25.6,23.0,78,68,55,30.08,29.97,13,6,0,0.00
2013-3-26,42.1,36.9,33.4,30.0,27.4,21.0,81,69,44,30.17,30.07,14,6,0,0.00
2013-3-27,41.1,34.6,27.2,31.0,27.9,23.0,89,77,59,30.27,30.16,17,4,0,0.00
2013-3-28,42.0,35.0,27.8,32.0,27.9,22.0,94,77,49,30.35,30.26,11,2,0,0.00
2013-3-29,44.7,31.1,17.5,31.0,23.3,15.0,94,75,45,30.38,30.30,9,2,0,0.00
2013-3-30,44.3,30.7,18.5,34.0,25.2,16.0,94,81,49,30.31,29.91,12,2,0,0.19
2013-3-31,37.7,34.5,25.3,37.0,32.2,20.0,96,91,71,29.89,29.63,21,4,0,0.05
2013-4-1,25.3,21.5,15.8,21.0,14.3,9.0,88,74,61,30.14,29.72,22,10,0,0.05
2013-4-2,26.3,18.7,7.2,20.0,12.7,4.0,89,78,59,30.31,30.13,20,5,0,0.00
2013-4-3,34.4,24.9,9.6,19.0,13.0,3.0,88,62,39,30.50,30.30,14,3,0,0.00
2013-4-4,39.3,32.5,21.9,34.0,27.9,17.0,94,83,71,30.35,29.98,14,5,0,0.09
2013-4-5,31.7,28.0,20.3,27.0,18.3,14.0,85,68,56,30.35,30.07,18,6,0,0.09
2013-4-6,34.1,26.7,17.2,33.0,23.5,14.0,96,88,71,30.35,29.80,20,7,0,0.01
2013-4-7,39.4,36.2,33.8,37.0,33.2,31.0,97,89,77,30.15,29.53,15,6,0,0.28
2013-4-8,39.1,35.0,32.0,35.0,31.7,30.0,94,88,75,30.16,30.00,14,3,0,0.08
2013-4-9,40.0,35.9,31.4,37.0,34.0,30.0,96,93,83,30.22,30.11,7,1,0,0.09
2013-4-10,43.2,36.7,31.1,33.0,26.0,21.0,94,67,46,30.27,30.16,11,4,0,0.00
2013-4-11,37.3,32.2,25.9,23.0,16.7,12.0,75,53,45,30.32,30.12,16,8,0,0.00
2013-4-12,33.6,29.5,26.2,28.0,25.9,23.0,93,86,75,30.12,29.79,17,7,0,0.02
2013-4-13,37.5,31.3,23.4,31.0,27.6,21.0,94,86,72,29.96,29.79,11,2,0,0.01
2013-4-14,41.7,34.6,30.4,31.0,28.3,25.0,91,79,55,30.18,29.96,11,4,0,0.01
2013-4-15,42.1,38.6,35.5,40.0,35.0,28.0,96,87,69,30.16,29.89,20,7,0,0.12
2013-4-16,42.4,36.5,28.6,38.0,32.2,27.0,96,85,67,30.42,29.92,18,5,0,0.13
2013-4-17,43.8,36.5,26.8,34.0,30.3,25.0,94,79,62,30.57,30.28,14,4,0,0.00
2013-4-18,44.0,41.0,38.8,42.0,37.2,26.0,95,87,54,30.27,29.57,12,5,0,0.21
2013-4-19,42.8,29.5,36.2,42.0,2.6,-99.9,96,67,78,29.60,29.30,25,-242,0,0.01
2013-4-20,31.1,17.1,20.8,21.0,-25.7,-99.9,85,43,62,30.56,29.61,16,-366,0,0.01
2013-4-21,39.7,29.3,16.3,29.0,21.9,14.0,91,75,49,30.75,30.54,15,6,0,0.00
2013-4-22,50.8,42.2,35.0,39.0,32.9,29.0,83,71,54,30.53,30.28,16,8,0,0.00
2013-4-23,45.6,40.4,33.7,41.0,35.2,31.0,95,82,63,30.27,29.93,13,4,0,0.35
2013-4-24,43.9,36.5,28.4,33.0,29.9,24.0,94,78,55,30.10,29.95,12,5,0,0.01
2013-4-25,38.5,33.3,26.2,37.0,30.3,23.0,93,88,81,30.37,30.03,13,4,0,0.04
2013-4-26,49.9,37.2,25.7,40.0,33.2,24.0,95,86,62,30.45,30.31,18,3,0,0.12
2013-4-27,61.8,47.3,31.9,53.0,42.4,30.0,100,84,70,30.33,30.19,12,3,0,0.12
2013-4-28,63.5,50.7,34.2,50.0,42.2,33.0,96,75,51,30.19,29.95,17,5,0,0.00
2013-4-29,56.3,50.6,47.7,52.0,48.9,46.0,97,94,84,29.99,29.94,11,4,0,0.02
2013-4-30,62.5,54.0,49.2,57.0,51.4,48.0,98,91,78,30.02,29.91,17,8,0,0.02
2013-5-1,71.1,57.5,46.1,61.0,50.2,39.0,94,78,53,30.37,30.01,10,4,0,0.00
2013-5-2,70.6,53.4,38.7,57.0,45.5,37.0,93,76,51,30.39,30.27,13,4,0,0.00
2013-5-3,70.4,57.4,40.8,48.0,43.2,37.0,93,62,41,30.30,30.22,19,5,0,0.00
2013-5-4,72.1,60.0,41.0,52.0,46.3,38.0,91,62,46,30.25,30.21,18,6,0,0.00
2013-5-5,73.3,56.7,37.8,50.0,41.6,36.0,96,63,30,30.25,30.16,13,3,0,0.00
2013-5-6,76.2,56.5,35.1,48.0,41.2,33.0,94,63,24,30.21,30.08,11,2,0,0.00
2013-5-7,77.0,57.1,33.7,50.0,40.4,32.0,96,61,25,30.20,30.11,10,2,0,0.00
2013-5-8,77.9,59.3,36.7,49.0,41.8,33.0,92,58,30,30.14,30.02,10,2,0,0.00
2013-5-9,67.9,52.2,38.5,49.0,41.7,35.0,96,70,44,30.19,30.02,14,4,0,0.00
2013-5-10,48.2,40.8,34.8,40.0,34.3,31.0,90,78,60,30.20,30.03,16,5,0,0.21
2013-5-11,53.7,38.4,28.4,41.0,33.9,27.0,95,85,57,30.03,29.72,14,3,0,0.33
2013-5-12,36.7,34.4,31.0,35.0,32.0,30.0,95,90,83,30.09,29.68,27,11,0,0.02
2013-5-13,48.8,41.0,29.5,32.0,28.0,21.0,95,63,34,30.20,30.08,24,6,0,0.02
2013-5-14,53.4,45.1,36.5,42.0,37.5,31.0,86,75,61,30.14,29.81,22,9,0,0.00
2013-5-15,66.3,53.4,43.4,49.0,41.9,38.0,89,67,39,29.80,29.58,21,9,0,0.00
2013-5-16,58.2,48.9,37.9,45.0,39.5,35.0,88,71,57,30.18,29.80,13,5,0,0.00
2013-5-17,65.5,50.7,32.4,46.0,38.7,31.0,99,68,42,30.32,30.19,13,3,0,0.00
2013-5-18,67.1,53.8,34.4,50.0,42.1,32.0,94,68,43,30.33,30.15,15,4,0,0.00
2013-5-19,73.6,59.6,53.7,56.0,50.0,47.0,87,72,53,30.15,29.99,13,4,0,0.05
2013-5-20,71.4,61.8,55.3,61.0,56.1,52.0,95,82,65,30.02,29.83,19,7,0,0.31
2013-5-21,60.1,56.6,53.9,57.0,54.2,52.0,96,91,87,29.93,29.80,13,5,0,0.32
2013-5-22,59.0,56.3,53.4,56.0,53.6,51.0,96,90,80,29.87,29.79,14,4,0,0.19
2013-5-23,55.0,46.3,37.4,52.0,36.1,30.0,93,70,47,30.37,29.87,18,9,0,0.43
2013-5-24,53.6,44.2,32.9,40.0,32.6,28.0,88,65,46,30.50,30.37,14,6,0,0.00
2013-5-25,63.4,47.6,30.0,42.0,34.6,28.0,95,66,29,30.55,30.40,13,3,0,0.00
2013-5-26,66.3,50.9,31.9,43.0,36.4,30.0,100,63,33,30.49,30.31,11,2,0,0.00
2013-5-27,69.8,53.4,32.4,47.0,38.0,31.0,95,61,32,30.35,30.14,13,3,0,0.00
2013-5-28,59.0,52.6,42.2,54.0,44.4,36.0,97,75,57,30.14,29.87,17,4,0,0.11
2013-5-29,66.3,58.1,50.8,60.0,55.3,49.0,98,91,77,30.03,29.82,10,3,0,0.12
2013-5-30,79.8,65.0,49.6,69.0,60.4,49.0,97,86,69,30.05,29.92,17,5,0,0.00
2013-5-31,77.6,68.3,62.5,67.0,63.5,60.0,96,85,64,29.94,29.83,19,4,0,0.02
2013-6-1,71.6,63.9,59.0,67.0,61.4,57.0,98,91,81,29.84,29.69,14,4,0,0.16
2013-6-2,59.2,49.5,40.2,58.0,46.3,36.0,97,89,79,30.07,29.65,20,6,0,0.23
2013-6-3,52.7,44.6,36.2,40.0,37.0,33.0,93,76,58,30.20,30.06,20,7,0,0.00
2013-6-4,66.5,49.9,29.9,46.0,38.3,28.0,96,69,37,30.31,30.20,13,3,0,0.00
2013-6-5,57.6,52.5,45.6,50.0,45.4,42.0,91,77,63,30.35,30.23,15,2,0,0.00
2013-6-6,68.5,59.0,48.1,49.0,44.9,39.0,94,63,39,30.24,30.06,14,3,0,0.00
2013-6-7,75.9,57.2,36.2,52.0,43.3,35.0,96,66,29,30.08,29.97,14,2,0,0.00
2013-6-8,72.9,57.1,36.1,55.0,45.9,35.0,96,69,43,30.14,30.00,9,2,0,0.00
2013-6-9,74.9,58.8,37.2,57.0,46.8,36.0,96,68,41,30.23,30.13,13,3,0,0.00
2013-6-10,72.1,64.7,54.8,62.0,55.0,47.0,90,71,59,30.14,29.91,15,4,0,0.00
2013-6-11,68.5,63.6,57.7,64.0,61.0,56.0,96,91,80,29.94,29.89,8,2,0,0.04
2013-6-12,77.1,63.7,51.7,62.0,55.6,49.0,98,79,44,29.98,29.84,11,2,0,0.00
2013-6-13,73.9,60.2,44.9,61.0,52.5,44.0,97,77,56,30.10,29.81,13,4,0,0.00
2013-6-14,70.5,59.0,43.3,50.0,42.7,37.0,84,57,35,30.23,30.10,11,3,0,0.00
2013-6-15,70.0,57.0,39.3,55.0,47.1,37.0,95,72,44,30.13,29.93,7,1,0,0.01
2013-6-16,70.8,60.0,51.6,65.0,55.3,49.0,97,86,62,29.92,29.78,12,2,0,0.02
2013-6-17,68.1,56.5,45.5,53.0,49.1,44.0,97,78,51,30.11,29.89,6,1,0,0.00
2013-6-18,70.2,56.7,40.5,49.0,43.0,36.0,94,64,36,30.21,30.11,16,3,0,0.00
2013-6-19,73.2,56.5,35.5,54.0,44.9,34.0,95,69,40,30.28,30.16,12,3,0,0.00
2013-6-20,66.1,56.5,41.3,60.0,52.5,39.0,95,86,78,30.27,30.19,5,1,0,0.05
2013-6-21,66.6,61.4,56.5,61.0,58.2,54.0,96,89,78,30.26,30.04,12,3,0,0.65
2013-6-22,72.8,65.2,59.0,66.0,62.8,58.0,98,92,78,30.14,29.99,9,2,0,0.01
2013-6-23,76.6,65.3,55.9,71.0,63.4,55.0,98,93,80,30.10,29.92,7,3,0,0.08
2013-6-24,82.5,70.2,57.1,73.0,66.0,56.0,98,87,67,30.00,29.88,10,2,0,0.00
2013-6-25,83.8,70.4,60.2,72.0,64.2,58.0,98,83,49,29.92,29.82,10,2,0,0.02
2013-6-26,85.7,70.0,51.0,71.0,61.9,50.0,98,78,53,29.88,29.80,7,1,0,0.00
2013-6-27,74.4,67.7,63.2,71.0,64.9,62.0,97,90,79,29.83,29.74,11,2,0,0.72
2013-6-28,72.2,64.9,55.2,67.0,62.2,54.0,98,91,78,29.74,29.68,10,2,0,0.03
2013-6-29,77.8,65.0,53.0,65.0,57.8,52.0,98,80,51,29.87,29.72,14,2,0,0.01
2013-6-30,79.6,65.3,46.4,59.0,49.2,40.0,91,59,34,30.12,29.88,11,3,0,0.00
2013-7-1,75.0,62.6,48.7,56.0,48.3,40.0,94,64,30,30.28,30.12,9,2,0,0.00
2013-7-2,77.9,62.1,47.3,55.0,48.1,42.0,93,65,32,30.28,30.15,8,1,0,0.00
2013-7-3,77.4,63.9,53.2,59.0,54.6,51.0,95,75,46,30.21,30.11,11,1,0,0.00
2013-7-4,75.9,66.7,59.0,66.0,61.8,56.0,95,84,68,30.13,30.07,11,3,0,0.00
2013-7-5,83.9,69.4,55.1,71.0,61.8,54.0,98,79,48,30.12,30.03,17,3,0,0.00
2013-7-6,84.7,68.9,54.3,69.0,61.5,53.0,97,80,49,30.08,30.00,16,3,0,0.00
2013-7-7,82.5,68.6,53.7,72.0,64.2,53.0,98,86,66,30.05,29.97,5,1,0,0.00
2013-7-8,71.8,66.3,61.8,68.0,63.0,59.0,96,89,85,30.07,30.02,7,2,0,0.01
2013-7-9,77.7,70.3,59.5,72.0,67.4,58.0,98,90,79,30.08,29.80,10,2,0,0.00
2013-7-10,69.6,63.7,53.9,68.0,60.5,51.0,97,89,75,29.99,29.64,16,7,0,0.07
2013-7-11,73.9,60.5,45.8,61.0,53.7,45.0,97,80,59,30.17,29.99,10,2,0,0.00
2013-7-12,80.0,61.8,42.6,61.0,53.2,41.0,98,77,46,30.26,30.17,11,2,0,0.00
2013-7-13,83.7,69.1,53.4,67.0,59.4,52.0,95,74,47,30.28,30.21,14,4,0,0.00
2013-7-14,86.8,71.6,52.6,69.0,62.1,51.0,97,74,48,30.33,30.26,13,3,0,0.00
2013-7-15,89.0,72.4,55.0,73.0,64.8,54.0,100,79,54,30.36,30.27,12,2,0,0.00
2013-7-16,91.4,75.5,58.5,75.0,67.9,58.0,98,80,49,30.34,30.21,11,2,0,0.00
2013-7-17,91.1,77.9,66.8,77.0,71.0,65.0,98,81,46,30.23,30.12,12,3,0,0.03
2013-7-18,81.1,71.1,63.1,74.0,68.6,62.0,98,92,75,30.15,29.78,17,3,0,0.74
2013-7-19,78.7,69.2,56.3,74.0,65.6,54.0,98,89,65,29.84,29.63,16,5,0,0.59
2013-7-20,68.9,60.3,49.2,61.0,53.1,47.0,98,79,55,30.08,29.78,14,4,0,0.00
2013-7-21,71.9,58.2,40.7,57.0,50.6,40.0,98,78,50,30.15,30.04,14,2,0,0.00
2013-7-22,78.7,67.6,52.6,70.0,62.1,51.0,95,83,69,30.05,29.66,14,4,0,0.00
2013-7-23,69.3,61.6,49.2,68.0,55.7,47.0,95,81,61,30.02,29.62,18,6,0,0.28
2013-7-24,71.0,57.4,38.6,55.0,48.6,37.0,97,75,48,30.13,30.03,12,3,0,0.00
2013-7-25,75.2,61.2,45.2,61.0,54.0,44.0,97,79,51,30.15,30.07,13,4,0,0.00
2013-7-26,68.8,63.1,60.2,65.0,60.8,55.0,97,92,80,30.07,29.90,17,4,0,0.85
2013-7-27,68.7,60.1,53.2,62.0,56.6,52.0,97,88,75,29.93,29.82,10,3,0,0.20
2013-7-28,67.0,58.6,50.3,57.0,53.7,49.0,95,85,59,29.98,29.76,15,4,0,0.01
2013-7-29,67.7,56.8,49.4,60.0,53.9,48.0,97,90,69,30.24,29.97,12,2,0,0.01
2013-7-30,76.1,60.8,44.8,65.0,54.7,44.0,98,82,54,30.29,30.17,9,2,0,0.01
2013-7-31,76.2,63.9,55.5,65.0,60.0,54.0,97,88,67,30.17,29.95,15,3,0,0.61
2013-8-1,70.5,62.1,53.7,62.0,57.5,52.0,98,85,67,29.96,29.90,14,4,0,0.01
2013-8-2,70.1,57.6,48.3,62.0,54.3,47.0,98,90,65,29.96,29.86,14,2,0,0.24
2013-8-3,64.0,56.4,45.2,58.0,52.3,44.0,98,87,70,30.12,29.96,13,4,0,0.00
2013-8-4,69.0,58.2,44.2,57.0,50.8,43.0,97,78,56,30.24,30.12,15,4,0,0.01
2013-8-5,71.6,56.9,41.0,59.0,49.8,40.0,98,79,50,30.18,30.01,13,3,0,0.01
2013-8-6,74.0,68.3,61.2,67.0,63.6,59.0,95,85,73,29.96,29.86,13,5,0,0.00
2013-8-7,71.0,64.5,58.5,67.0,62.0,55.0,98,91,80,30.00,29.75,13,4,0,0.72
2013-8-8,73.2,61.4,46.3,61.0,53.5,45.0,98,78,46,30.09,30.00,13,2,0,0.72
2013-8-9,68.5,59.5,49.4,63.0,55.2,47.0,97,86,61,30.09,29.91,19,4,0,0.91
2013-8-10,69.9,57.8,42.7,58.0,51.1,42.0,97,80,57,30.18,30.10,14,2,0,0.91
2013-8-11,74.1,60.0,44.2,61.0,54.4,43.0,98,83,57,30.18,30.06,7,2,0,0.00
2013-8-12,70.2,58.9,48.8,65.0,56.5,48.0,98,92,79,30.08,29.92,13,3,0,0.33
2013-8-13,60.3,55.0,47.8,51.0,48.1,44.0,91,78,63,30.16,29.98,14,5,0,0.33
2013-8-14,66.6,55.4,42.6,56.0,48.7,42.0,98,80,54,30.21,30.14,15,3,0,0.01
2013-8-15,72.9,57.5,40.6,58.0,49.8,40.0,97,78,54,30.16,30.09,9,2,0,0.01
2013-8-16,78.7,60.7,42.2,63.0,53.3,41.0,97,79,47,30.27,30.16,10,1,0,0.00
2013-8-17,78.9,64.1,47.8,65.0,56.3,47.0,100,78,48,30.32,30.23,14,3,0,0.00
2013-8-18,79.3,64.4,49.5,69.0,58.0,48.0,98,81,58,30.26,30.12,9,1,0,0.00
2013-8-19,79.1,65.5,51.9,68.0,59.6,51.0,98,83,59,30.14,30.01,12,2,0,0.00
2013-8-20,83.0,68.7,56.0,73.0,62.2,-99.9,98,83,63,30.07,30.01,13,-8,0,0.00
2013-8-21,82.8,72.3,61.2,73.0,67.2,60.0,97,84,69,30.06,29.90,17,4,0,0.00
2013-8-22,78.7,67.5,52.6,67.0,57.7,50.0,98,74,40,30.18,29.95,14,2,0,0.00
2013-8-23,76.3,61.3,45.0,62.0,53.5,44.0,98,79,50,30.31,30.18,6,1,0,0.00
2013-8-24,76.8,62.8,47.2,65.0,57.4,46.0,98,84,63,30.38,30.26,11,3,0,0.01
2013-8-25,72.0,66.2,56.7,71.0,63.9,55.0,98,92,73,30.27,30.01,13,2,0,0.78
2013-8-26,82.5,73.2,66.5,74.0,69.4,66.0,99,89,69,30.06,29.93,14,3,0,0.10
2013-8-27,83.8,72.5,66.5,75.0,69.3,66.0,99,90,68,30.00,29.89,6,1,0,0.10
2013-8-28,85.7,72.9,64.5,75.0,68.3,64.0,99,87,63,30.09,29.93,9,1,0,0.00
2013-8-29,86.2,71.9,61.7,74.0,67.7,61.0,99,88,60,30.14,29.97,6,1,0,0.00
2013-8-30,74.9,69.4,66.1,71.0,67.4,62.0,98,93,80,29.98,29.79,8,2,0,0.63
2013-8-31,76.0,67.0,57.1,67.0,61.7,55.0,96,83,67,29.97,29.89,6,2,0,0.63
2013-9-1,70.3,64.8,58.2,67.0,62.9,57.0,98,93,85,29.92,29.75,15,5,0,0.13
2013-9-2,59.6,56.2,54.0,58.0,52.7,50.0,94,88,83,29.95,29.79,15,8,0,0.13
2013-9-3,69.8,59.5,49.4,57.0,52.2,48.0,95,78,55,30.01,29.94,12,4,0,0.00
2013-9-4,66.7,57.0,48.1,58.0,49.8,45.0,97,78,50,30.21,29.92,14,4,0,0.00
2013-9-5,62.3,50.9,36.7,48.0,42.5,35.0,96,75,48,30.40,30.22,11,2,0,0.00
2013-9-6,70.0,56.4,41.9,63.0,53.6,41.0,98,91,76,30.31,30.03,14,2,0,0.49
2013-9-7,75.9,65.2,55.1,70.0,62.5,52.0,98,91,77,30.11,29.93,14,2,0,0.59
2013-9-8,67.1,55.2,44.0,55.0,49.7,43.0,98,83,52,30.27,30.12,6,1,0,0.01
2013-9-9,64.2,57.7,48.1,64.0,55.6,47.0,98,93,80,30.16,29.82,9,2,0,2.35
2013-9-10,80.7,68.7,63.9,74.0,67.2,63.0,99,95,78,29.97,29.80,16,2,0,1.21
2013-9-11,74.8,67.2,62.7,68.0,64.5,61.0,98,91,69,30.00,29.93,6,2,0,0.05
2013-9-12,63.9,59.1,48.4,63.0,54.9,43.0,97,86,73,30.15,29.90,14,5,0,0.02
2013-9-13,59.5,49.0,41.4,45.0,40.3,35.0,94,73,49,30.28,30.15,14,4,0,0.00
2013-9-14,66.2,51.0,35.9,56.0,46.5,35.0,98,86,64,30.24,30.05,15,3,0,0.01
2013-9-15,60.0,53.8,42.8,59.0,52.0,38.0,97,93,83,30.34,30.01,13,3,0,0.16
2013-9-16,57.1,44.0,31.7,44.0,37.7,31.0,97,81,55,30.54,30.34,9,1,0,0.00
2013-9-17,62.4,47.3,33.0,50.0,41.4,32.0,97,82,56,30.53,30.27,10,2,0,0.01
2013-9-18,66.9,54.9,40.5,59.0,51.2,40.0,98,88,71,30.26,30.03,10,2,0,0.00
2013-9-19,75.6,66.6,61.7,66.0,61.9,58.0,93,85,72,30.04,29.85,12,4,0,0.00
2013-9-20,71.0,65.7,57.9,69.0,64.2,55.0,97,95,89,29.85,29.66,15,5,0,0.45
2013-9-21,57.2,51.4,43.1,55.0,46.6,39.0,92,84,68,29.97,29.75,14,6,0,0.01
2013-9-22,57.5,44.6,35.1,45.0,38.9,33.0,95,81,56,30.21,29.97,11,2,0,0.00
2013-9-23,60.2,45.4,31.6,49.0,40.4,30.0,97,84,62,30.32,30.21,6,1,0,0.01
2013-9-24,66.1,48.8,33.9,53.0,43.9,33.0,97,84,60,30.29,30.13,7,1,0,0.00
2013-9-25,68.0,50.1,33.2,56.0,44.1,32.0,98,82,53,30.17,30.11,8,1,0,0.01
2013-9-26,72.5,53.1,35.6,57.0,46.4,35.0,98,81,49,30.24,30.14,6,1,0,0.00
2013-9-27,71.5,54.9,37.8,58.0,48.6,37.0,98,81,54,30.32,30.24,11,2,0,0.01
2013-9-28,69.0,60.7,52.9,61.0,56.6,51.0,96,86,73,30.27,29.94,18,7,0,0.01
2013-9-29,65.6,57.2,42.1,58.0,50.7,41.0,96,80,54,30.11,29.88,19,4,0,0.38
2013-9-30,66.4,51.5,35.6,56.0,46.2,35.0,98,84,53,30.10,29.94,10,2,0,0.00
2013-10-1,74.6,60.6,47.1,65.0,56.3,46.0,96,86,68,29.96,29.76,17,4,0,0.01
2013-10-2,67.3,54.9,42.7,53.0,46.4,40.0,97,77,43,30.16,29.87,18,4,0,0.01
2013-10-3,60.7,51.4,38.9,54.0,47.2,38.0,97,86,69,30.17,30.08,10,2,0,0.05
2013-10-4,62.2,57.8,54.1,53.0,50.7,48.0,92,77,68,30.24,30.07,9,3,0,0.05
2013-10-5,55.8,49.8,45.8,48.0,44.2,40.0,93,81,68,30.27,30.09,11,5,0,0.48
2013-10-6,59.0,54.5,47.9,58.0,53.2,46.0,97,95,92,30.07,29.64,11,4,0,0.83
2013-10-7,55.6,51.2,43.9,54.0,47.1,41.0,96,86,70,30.09,29.58,15,6,0,0.02
2013-10-8,64.1,49.1,33.6,52.0,43.0,32.0,97,81,53,30.29,30.09,14,4,0,0.00
2013-10-9,71.5,57.6,44.6,57.0,51.5,43.0,97,81,59,30.31,30.25,15,3,0,0.00
2013-10-10,68.9,52.6,39.0,58.0,47.7,38.0,98,85,54,30.31,30.24,11,2,0,0.01
2013-10-11,66.4,52.3,38.6,55.0,47.0,37.0,98,84,56,30.29,30.17,10,2,0,0.01
2013-10-12,68.2,57.1,44.3,57.0,51.5,43.0,96,83,64,30.17,30.05,16,6,0,0.02
2013-10-13,60.8,50.3,34.7,58.0,45.5,33.0,97,84,69,30.47,30.04,14,3,0,0.00
2013-10-14,59.0,42.1,29.3,48.0,36.8,28.0,97,83,56,30.55,30.41,8,1,0,0.00
2013-10-15,57.4,46.1,31.6,52.0,43.5,30.0,97,91,78,30.40,29.82,15,4,0,0.30
2013-10-16,56.6,53.0,48.1,56.0,51.1,45.0,97,93,88,29.88,29.69,15,5,0,0.09
2013-10-17,52.2,47.1,42.6,47.0,44.4,41.0,96,90,79,29.93,29.82,5,1,0,0.06
2013-10-18,54.1,43.4,34.9,48.0,41.2,34.0,97,92,72,29.89,29.81,10,1,0,0.17
2013-10-19,50.9,41.7,30.8,45.0,37.2,29.0,97,85,52,29.87,29.73,12,2,0,0.02
2013-10-20,51.4,39.5,27.8,44.0,35.9,27.0,96,87,72,29.91,29.81,11,2,0,0.02
2013-10-21,49.0,44.0,34.7,47.0,40.4,29.0,96,87,66,29.83,29.67,14,6,0,0.18
2013-10-22,45.7,35.6,26.4,37.0,30.5,24.0,94,82,58,29.93,29.72,20,4,0,0.02
2013-10-23,39.9,33.6,24.8,36.0,30.6,22.0,94,88,75,29.93,29.87,12,2,0,0.24
2013-10-24,44.2,38.1,32.6,37.0,33.9,31.0,94,85,70,30.17,29.88,14,3,0,0.01
2013-10-25,45.0,37.1,26.3,39.0,32.6,25.0,95,84,64,30.28,29.84,23,4,0,0.07
2013-10-26,45.7,40.9,31.5,42.0,36.8,29.0,94,85,68,29.99,29.57,22,7,0,0.34
2013-10-27,44.2,36.7,28.5,39.0,33.9,27.0,95,90,68,30.06,29.94,11,2,0,0.06
2013-10-28,39.6,32.7,22.8,36.0,25.2,21.0,91,75,54,30.60,30.07,16,4,0,0.00
2013-10-29,37.8,29.3,21.1,31.0,25.1,19.0,93,84,65,30.62,30.34,6,1,0,0.01
2013-10-30,48.1,39.9,33.3,46.0,38.1,31.0,96,93,88,30.34,29.99,6,1,0,0.04
2013-10-31,53.3,50.8,48.1,53.0,49.8,46.0,97,96,92,29.97,29.11,10,3,0,0.86
2013-11-1,53.2,46.3,39.3,52.0,43.7,36.0,97,90,81,29.77,28.93,14,4,0,0.26
2013-11-2,40.7,35.9,31.4,35.0,28.2,22.0,92,75,59,30.28,29.77,12,3,0,0.00
2013-11-3,40.7,32.4,25.1,34.0,24.6,20.0,86,73,62,30.55,30.29,12,3,0,0.00
2013-11-4,47.0,42.6,38.7,39.0,35.9,32.0,83,77,65,30.55,30.29,26,12,0,0.02
2013-11-5,56.6,46.2,37.4,46.0,39.9,34.0,94,79,54,30.31,30.13,12,3,0,0.06
2013-11-6,50.5,44.9,36.5,50.0,43.3,34.0,97,94,89,30.11,29.67,16,6,0,0.58
2013-11-7,36.6,34.4,31.5,35.0,32.9,30.0,96,94,90,30.12,29.99,12,2,0,0.21
2013-11-8,36.6,32.2,28.9,32.0,30.0,27.0,95,91,82,30.28,30.12,7,1,0,0.12
2013-11-9,41.9,37.9,33.2,41.0,36.3,31.0,96,94,89,30.19,29.68,15,7,0,0.40
2013-11-10,40.3,37.1,31.0,39.0,32.5,28.0,94,84,71,30.23,29.73,18,8,0,0.06
2013-11-11,39.4,29.0,19.8,34.0,24.1,13.0,93,82,70,30.47,29.98,19,8,0,0.02
2013-11-12,28.9,25.0,19.7,24.0,17.7,13.0,88,74,60,30.61,30.48,15,6,0,0.00
2013-11-13,42.1,34.9,26.2,34.0,26.8,17.0,79,72,63,30.49,29.89,15,6,0,0.00
2013-11-14,47.0,40.6,34.8,38.0,35.1,30.0,95,81,68,29.93,29.87,15,4,0,0.14
2013-11-15,50.8,39.6,31.6,45.0,37.3,30.0,97,91,76,30.04,29.90,10,1,0,0.01
2013-11-16,48.5,41.4,29.7,47.0,39.5,29.0,97,93,81,30.07,29.64,18,7,0,0.32
2013-11-17,57.1,53.0,46.1,55.0,51.8,44.0,97,96,93,29.64,28.98,24,9,0,1.75
2013-11-18,46.3,34.0,28.4,44.0,31.3,22.0,95,90,78,30.15,29.10,23,12,0,0.12
2013-11-19,31.0,26.0,22.2,23.0,20.5,18.0,90,80,70,30.51,30.15,24,4,0,0.00
2013-11-20,40.6,35.5,26.1,35.0,31.0,23.0,91,84,72,30.50,30.34,16,7,0,0.00
2013-11-21,41.1,39.2,35.5,38.0,35.6,32.0,96,87,80,30.34,30.26,10,2,0,0.02
2013-11-22,38.8,30.4,23.9,38.0,28.0,21.0,99,91,80,30.42,30.24,12,4,0,0.07
2013-11-23,27.5,16.3,9.1,26.0,9.2,1.0,93,74,62,30.62,30.29,19,9,0,0.00
2013-11-24,22.8,12.1,2.3,20.0,6.4,-1.0,91,78,63,30.68,30.25,11,3,0,0.00
2013-11-25,33.7,30.6,23.0,30.0,27.4,19.0,95,88,81,30.25,29.86,19,7,0,0.00
2013-11-26,33.9,28.4,12.9,30.0,24.2,10.0,96,84,75,30.12,29.93,11,3,0,0.00
2013-11-27,22.2,15.9,5.6,15.0,9.1,0.0,91,75,62,30.31,30.10,17,5,0,0.00
2013-11-28,20.0,10.2,-2.4,13.0,5.9,-6.0,89,83,66,30.62,30.32,6,0,0,0.00
2013-11-29,27.7,16.1,-0.4,23.0,12.0,-4.0,89,84,74,30.77,30.61,9,2,0,0.00
2013-11-30,32.6,30.7,27.8,31.0,27.2,22.0,95,87,76,30.60,30.14,16,5,0,0.00
2013-12-1,31.9,29.4,24.4,30.0,24.6,20.0,95,82,73,30.25,30.16,9,2,0,0.00
2013-12-2,31.0,21.1,9.9,22.0,16.5,7.0,91,83,68,30.16,30.03,6,1,0,0.02
2013-12-3,23.9,15.4,0.6,20.0,11.5,-3.0,90,84,77,30.18,30.12,10,3,0,0.00
2013-12-4,35.9,26.9,22.5,34.0,24.0,19.0,94,89,83,30.16,29.59,26,7,0,0.00
2013-12-5,44.3,32.8,17.8,44.0,27.1,9.0,97,80,60,30.13,29.48,22,10,0,0.12
2013-12-6,24.9,18.5,14.0,17.0,11.8,7.0,80,75,69,30.41,30.13,16,8,0,0.00
2013-12-7,21.6,15.8,11.2,13.0,8.9,2.0,84,75,64,30.62,30.41,14,7,0,0.00
2013-12-8,20.6,12.8,2.8,17.0,7.1,-1.0,88,78,63,30.66,30.23,9,2,0,0.00
2013-12-9,27.9,21.2,9.7,25.0,17.0,3.0,91,84,71,30.22,29.78,15,5,0,0.03
2013-12-10,14.1,6.8,-3.7,8.0,1.5,-8.0,88,79,72,30.08,29.91,18,2,0,0.00
2013-12-11,11.2,8.5,-1.2,7.0,3.5,-6.0,87,80,72,30.40,30.08,16,4,0,0.00
2013-12-12,16.7,5.4,-10.9,10.0,-0.6,-15.0,87,77,56,30.39,30.06,18,5,0,0.00
2013-12-13,13.5,-3.5,-16.5,11.0,-9.3,-21.0,88,76,62,30.64,30.07,12,2,0,0.00
2013-12-14,8.4,1.5,-14.4,2.0,-6.8,-20.0,81,69,58,30.64,30.12,10,3,0,0.00
2013-12-15,13.6,7.1,-5.5,6.0,1.0,-10.0,82,76,70,30.15,29.86,7,3,0,0.00
2013-12-16,11.0,-3.6,-20.6,7.0,-9.8,-26.0,85,75,57,30.34,30.12,10,1,0,0.00
2013-12-17,19.4,16.3,11.2,17.0,13.9,8.0,92,90,86,30.11,29.91,7,2,0,0.00
2013-12-18,23.3,20.3,16.5,21.0,17.4,14.0,92,88,73,30.09,29.87,10,3,0,0.00
2013-12-19,29.6,22.5,14.6,27.0,18.9,10.0,93,86,73,30.21,29.82,12,3,0,0.01
2013-12-20,20.1,15.6,10.0,15.0,11.1,6.0,87,82,77,30.20,30.02,6,2,0,0.00
2013-12-21,23.3,20.0,17.0,17.0,15.2,13.0,88,81,73,30.18,29.99,11,2,0,0.00
2013-12-22,20.9,13.9,6.1,13.0,9.0,2.0,88,81,71,30.24,30.03,19,7,0,0.00
2013-12-23,7.0,0.2,-17.3,2.0,-4.6,-22.0,83,80,73,30.56,30.25,10,2,0,0.00
2013-12-24,8.2,-13.4,-27.9,0.0,-19.0,-34.0,92,76,65,30.70,30.56,4,0,0,0.00
2013-12-25,21.5,13.2,-14.2,19.0,10.4,-19.0,92,88,79,30.62,30.14,18,6,0,0.00
2013-12-26,22.4,7.3,-7.1,19.0,3.3,-11.0,88,83,74,30.33,30.13,11,2,0,0.00
2013-12-27,30.0,17.0,4.7,27.0,13.4,1.0,90,85,69,30.36,29.94,11,2,0,0.00
2013-12-28,34.0,32.0,20.7,32.0,29.7,17.0,94,91,87,30.06,29.91,14,3,0,0.01
2013-12-29,20.5,7.1,-14.9,17.0,2.5,-21.0,87,82,72,30.22,29.89,13,6,0,0.00
2013-12-30,7.1,-5.9,-23.8,1.0,-10.9,-29.0,85,79,74,30.40,30.20,6,2,0,0.00
2013-12-31,14.0,3.6,-4.4,9.0,-0.3,-8.0,87,83,72,30.39,30.11,12,2,0,0.00
2014-1-1,3.9,-12.0,-24.0,0.0,-17.2,-29.0,85,77,72,30.68,30.40,4,1,0,0.00
2014-1-2,-0.9,-17.6,-27.6,-8.0,-23.1,-33.0,81,76,70,30.63,30.51,2,0,0,0.00